User: anonymous   Login
Location: Unspecified
(0.0000°N, 0.0000°E)
Time: 01:19:24
(UTC+00:00)
Language:

ISS - Orbit

View from above orbital plane
View from above orbital plane
View from above satellite
View from above satellite

Ground track
Ground track

The orbit data is extracted from the following two-line orbital elements,

1 25544U 98067A   15144.64517005  .00007655  00000-0  11823-3 0  9994
2 25544 051.6437 201.5763 0003757 338.2420 157.5802 15.55173928944377
Epoch (UTC): 24 May 2015 15:29:02
Eccentricity: 0.0003757
inclination: 51.6437°
perigee height: 399 km
apogee height: 404 km
right ascension of ascending node: 201.5763°
argument of perigee: 338.2420°
revolutions per day: 15.55173928
mean anomaly at epoch: 157.5802°
orbit number at epoch: 94437

The dashed part of the orbit path shows where the satellite is in the earth's shadow,  

DLR